TimeCDT,TemperatureF,Dew PointF,Humidity,Sea Level PressureIn,VisibilityMPH,Wind Direction,Wind SpeedMPH,Gust SpeedMPH,PrecipitationIn,Events,Conditions,WindDirDegrees,DateUTC
12:53 AM,28.9,24.1,82,30.04,10.0,SSW,4.6,-,N/A,,Clear,210,2013-10-22 05:53:00
1:53 AM,27.0,24.1,89,30.05,10.0,SSW,4.6,-,N/A,,Clear,210,2013-10-22 06:53:00
2:53 AM,27.0,23.0,85,30.05,10.0,SSW,3.5,-,N/A,,Clear,200,2013-10-22 07:53:00
3:53 AM,28.9,24.1,82,30.04,10.0,SSW,4.6,-,N/A,,Clear,210,2013-10-22 08:53:00
4:53 AM,28.9,24.1,82,30.04,10.0,SSW,3.5,-,N/A,,Clear,200,2013-10-22 09:53:00
5:53 AM,28.0,23.0,81,30.04,10.0,SSW,3.5,-,N/A,,Clear,210,2013-10-22 10:53:00
6:53 AM,28.9,25.0,85,30.05,10.0,Calm,Calm,-,N/A,,Clear,0,2013-10-22 11:53:00
7:53 AM,34.0,30.9,89,30.04,10.0,South,3.5,-,N/A,,Mostly Cloudy,170,2013-10-22 12:53:00
8:53 AM,37.9,34.0,86,30.05,10.0,South,9.2,-,N/A,,Overcast,190,2013-10-22 13:53:00
9:53 AM,41.0,35.1,79,30.03,10.0,South,4.6,-,N/A,,Overcast,170,2013-10-22 14:53:00
10:53 AM,46.0,36.0,68,30.00,10.0,South,10.4,-,N/A,,Mostly Cloudy,190,2013-10-22 15:53:00
11:53 AM,48.9,34.0,56,29.97,10.0,South,10.4,-,N/A,,Overcast,170,2013-10-22 16:53:00
12:53 PM,50.0,33.1,52,29.94,10.0,South,12.7,-,N/A,,Overcast,180,2013-10-22 17:53:00
1:53 PM,48.0,37.9,68,29.90,10.0,SSE,6.9,-,0.00,Rain,Light Rain,160,2013-10-22 18:53:00
2:53 PM,45.0,39.9,82,29.89,3.0,South,3.5,-,0.04,Rain,Rain,180,2013-10-22 19:53:00
3:05 PM,44.6,39.2,81,29.87,3.0,SSE,6.9,-,0.02,Rain,Rain,150,2013-10-22 20:05:00
3:12 PM,44.6,39.2,81,29.86,3.0,SSE,8.1,-,0.03,Rain,Rain,160,2013-10-22 20:12:00
3:53 PM,44.1,42.1,93,29.87,3.0,ESE,6.9,-,0.09,Rain,Rain,110,2013-10-22 20:53:00
4:53 PM,44.1,42.1,93,29.87,3.0,East,6.9,-,0.04,Rain,Light Rain,100,2013-10-22 21:53:00
5:53 PM,44.1,42.1,93,29.85,10.0,East,10.4,-,0.01,,Overcast,80,2013-10-22 22:53:00
6:07 PM,44.6,42.8,93,29.83,10.0,East,8.1,-,N/A,,Overcast,80,2013-10-22 23:07:00
6:42 PM,42.8,41.0,93,29.82,10.0,East,9.2,-,0.02,Rain,Light Rain,90,2013-10-22 23:42:00
6:53 PM,43.0,41.0,93,29.84,10.0,East,11.5,-,0.02,,Overcast,90,2013-10-22 23:53:00
7:53 PM,42.1,39.9,92,29.85,10.0,NE,11.5,17.3,0.03,Rain,Light Rain,40,2013-10-23 00:53:00
8:09 PM,41.0,39.2,93,29.83,10.0,NE,12.7,17.3,0.01,Rain,Light Rain,50,2013-10-23 01:09:00
8:53 PM,41.0,39.0,93,29.86,10.0,NE,10.4,18.4,0.03,Rain,Light Rain,40,2013-10-23 01:53:00
9:53 PM,37.0,35.1,93,29.88,10.0,NNE,16.1,23.0,0.03,Rain,Light Rain,20,2013-10-23 02:53:00
10:53 PM,36.0,34.0,93,29.90,9.0,North,11.5,19.6,0.02,Snow,Light Snow,360,2013-10-23 03:53:00
11:53 PM,36.0,34.0,93,29.91,10.0,North,11.5,19.6,0.01,,Overcast,350,2013-10-23 04:53:00